Weather in Baĺšavіk

Belarus     52°33′49″N   30°52′40″E
temp.,
°C
wind,
m/s
gust,
m/s
humid.,
%
clouds,
%
prec.,
mm/h
press.,
hPa
HPBL,
m
19 june, sat
sat1900:00+17e38910 0.0 1024169
03:00+15e35930 0.0 1024104
06:00+16e36910 0.0 1023144
09:00+21e46740 0.0 1023500
12:00+25ese56595 0.0 10221324
15:00+27ese55562 0.0 10211567
18:00+26ese45641 0.0 10211235
21:00+22ese48830 0.0 1021187
20 june, sun
sun2000:00+19ese38930 0.0 1021170
03:00+18e37941 0.0 1021148
06:00+17e399281 0.0 1021238
09:00+22ese577289 0.0 1021531
12:00+25e575773 0.0 1020980
15:00+27ese575490 0.0 10191135
18:00+25ese5866100 0.0 1018802
21:00+21e4983100 0.0 1017233
21 june, mon
mon2100:00+20e398680 0.0 1017249
03:00+18ene3790100 0.0 1017183
06:00+18e4108774 0.0 1016251
09:00+22e587011 0.0 1016508
12:00+26ese686035 0.1 1015929
15:00+29ese695217 0.1 10141447
18:00+28se5958100 0.0 1014952
21:00+23se3778100 0.0 1014236
22 june, tue
tue2200:00+20ese49925 0.0 1015225
03:00+19ese3894100 0.0 1015183
06:00+19ese37925 0.0 1015187
09:00+24ese457263 0.0 1015453
12:00+28ese575896 0.0 1015946
15:00+30ese574714 0.0 10151335
18:00+28ese6105896 0.0 1015770
21:00+22ese4107887 0.0 1016287
23 june, wed
wed2300:00+20ese379085 0.0 1017164
03:00+19e369313 0.0 1017118
06:00+20e399294 0.0 1017203
09:00+25e5872100 0.0 1017429
12:00+29ese6856100 0.0 1016908
15:00+30ese5754100 0.0 10161130
18:00+29ese5863100 0.0 1016649
21:00+24ese4880100 0.0 1016251